Wind_Speed
4 2 1 2 2 3 2 2 2 2 4 5 6 8 10 11 11 11 10 9 9 9 9 9 10 9 8 7 6 6 6 6 7 7 7 7 7 8 8 9 8 8 9 8
5 3 2 1 1 2 1 1 2 3 3 3 5 7 9 10 11 11 10 9 8 8 8 8 9 9 8 7 7 7 7 7 7 7 7 7 8 9 9 10 9 9 9 9
6 3 4 4 3 1 1 1 2 3 4 4 6 8 8 10 10 10 9 9 8 8 7 7 8 9 9 7 7 7 7 8 8 8 8 8 8 9 10 11 11 11 10 10
7 6 7 5 4 3 3 2 2 2 3 5 5 8 9 10 10 10 8 8 8 8 8 7 7 8 8 8 6 6 7 8 8 8 8 8 9 10 11 12 12 11 11 11
8 8 8 7 7 6 4 3 3 2 3 4 5 8 10 10 11 10 8 8 7 7 7 7 7 7 8 8 7 7 8 8 9 9 9 9 10 11 12 12 13 12 12 12
9 8 8 8 8 7 5 4 2 4 4 6 5 7 9 10 12 12 9 8 7 7 7 6 6 7 8 8 8 8 9 9 9 10 10 11 11 12 13 13 13 12 12 12
9 9 9 9 8 7 6 5 5 6 5 7 7 7 8 11 12 12 11 9 7 7 7 7 7 8 8 9 8 9 10 10 10 10 11 11 12 12 13 13 13 13 12 13
12 11 11 11 10 10 9 8 6 7 7 8 9 8 9 11 12 13 11 9 8 8 9 9 9 9 9 9 9 9 10 10 10 10 11 12 13 13 13 14 15 14 14 14
14 13 13 13 13 12 11 11 9 9 9 9 10 8 11 12 12 12 11 11 10 10 10 10 9 10 10 10 10 10 10 10 11 12 13 13 13 13 14 15 15 16 15 15
17 16 14 14 15 13 13 11 10 10 11 11 10 8 10 12 13 14 13 13 12 12 12 11 10 10 11 11 12 11 11 11 12 13 14 14 14 14 15 16 17 17 16 16
20 18 15 15 16 14 13 12 12 13 13 11 12 11 12 14 15 15 15 15 14 14 13 12 11 12 13 13 14 14 13 13 14 14 15 15 15 16 17 17 18 18 18 18
22 21 20 19 18 17 16 16 16 16 17 15 15 14 15 13 14 17 17 16 15 15 15 15 15 14 15 15 15 16 15 16 16 17 17 17 17 17 17 18 19 19 19 19
24 24 22 20 18 18 17 16 17 17 17 17 17 16 15 14 16 18 18 17 18 18 17 17 17 17 16 17 17 18 17 18 18 19 19 19 19 19 19 19 19 19 20 20
27 26 24 22 19 19 18 17 17 17 19 20 19 18 18 19 21 20 20 19 20 20 20 19 19 19 19 19 19 19 19 20 20 21 21 21 20 21 21 21 22 22 22 22
29 28 27 25 23 23 22 21 20 20 21 21 19 21 22 22 23 22 22 22 21 22 22 23 22 21 21 21 21 21 21 22 22 22 23 23 23 23 23 23 24 23 24 24
29 30 29 28 26 26 25 24 22 22 22 23 22 22 23 23 25 25 25 24 22 22 23 24 24 23 23 23 23 23 23 24 24 24 24 25 25 25 25 25 26 26 26 27
30 30 30 30 29 29 28 25 25 24 23 24 25 25 26 25 26 26 27 27 26 25 24 25 25 24 23 25 24 25 25 25 26 26 26 27 27 27 27 28 28 29 29 29
31 31 31 30 29 31 29 27 28 27 27 27 28 28 28 28 27 29 28 28 27 27 27 27 27 25 25 26 25 25 26 27 27 28 28 28 29 29 29 30 30 31 32 32
33 32 31 30 31 31 29 28 27 28 30 29 30 31 31 30 29 30 30 29 28 29 29 29 29 29 29 28 29 28 29 29 29 30 30 30 30 31 31 31 32 33 34 34
32 32 32 31 31 31 30 29 27 28 31 32 32 32 34 32 30 32 32 31 30 30 31 32 31 31 30 30 31 30 30 31 31 31 31 31 31 32 33 33 34 34 35 35
32 33 33 32 32 31 29 28 28 29 32 32 32 33 34 33 33 34 35 33 32 33 33 33 33 33 32 32 31 31 31 32 32 32 32 32 33 33 33 34 35 36 37 37
32 33 34 34 34 34 31 30 31 32 31 33 33 33 34 35 35 36 35 34 34 34 34 34 34 34 34 33 33 32 32 32 32 32 33 33 34 34 35 35 37 38 38 38
32 32 32 34 35 35 33 33 33 33 33 34 34 34 35 35 35 37 36 35 35 35 35 34 34 34 33 33 33 33 33 33 33 33 33 34 35 36 37 37 39 39 40 40
35 33 34 34 35 36 36 36 36 36 35 35 35 35 34 35 36 36 36 36 35 35 34 35 35 34 34 33 33 34 34 34 34 34 34 34 36 36 37 39 39 40 40 40
36 35 36 37 37 37 37 36 37 37 35 36 35 35 36 36 36 36 37 36 36 35 35 35 35 35 35 34 34 35 35 35 36 36 36 37 37 37 38 38 38 40 41 40
35 35 36 37 36 37 37 37 36 36 35 35 36 35 35 36 36 36 36 36 36 36 36 36 36 35 35 35 36 36 36 36 37 37 37 38 38 39 40 40 40 40 41 39
Wind_Direction
156 133 112 92 166 137 95 57 16 355 340 360 5 355 357 1 5 6 8 13 15 16 19 24 26 27 27 29 30 31 31 25 20 24 27 25 24 23 18 17 12 6 359 353
203 203 190 176 207 137 133 334 349 337 324 349 348 344 349 353 352 353 356 3 8 8 11 18 23 23 25 25 18 18 20 16 13 16 18 18 14 13 9 7 6 4 2 359
224 227 222 207 214 204 219 260 271 312 340 357 341 335 342 344 344 346 348 353 2 6 9 15 19 20 20 20 18 14 10 11 11 13 10 7 5 3 2 1 359 359 360 357
227 235 234 222 227 245 261 261 255 301 324 331 335 321 331 337 335 337 347 350 356 3 5 7 9 12 13 13 10 7 3 4 5 5 4 2 358 359 359 359 358 359 358 355
223 232 232 226 228 234 244 247 246 267 299 319 325 312 321 327 327 330 340 342 344 355 357 357 356 359 2 4 2 358 357 355 355 359 359 357 358 356 355 354 354 354 356 356
225 233 238 231 232 236 237 247 307 324 306 306 311 303 309 316 319 322 325 324 333 337 341 341 341 343 345 350 352 350 353 352 355 355 353 351 351 353 354 355 354 353 352 350
232 239 244 242 239 240 242 259 286 295 296 299 306 283 287 303 312 314 310 309 317 324 325 326 324 327 330 335 339 340 341 341 342 345 346 346 345 346 347 348 348 345 344 343
238 245 248 249 244 238 238 246 250 272 282 291 297 290 290 296 302 307 305 301 301 302 306 310 312 317 318 320 325 328 331 332 332 334 337 340 342 342 342 342 343 341 337 336
234 240 245 248 245 246 242 240 246 264 275 276 282 287 295 294 303 305 304 296 291 293 296 302 308 311 312 313 315 318 319 321 325 330 333 334 335 335 336 339 339 339 333 330
234 236 238 248 248 248 251 246 242 249 258 261 271 288 285 281 290 299 304 301 297 291 290 292 298 302 301 306 310 312 313 316 319 323 328 330 331 331 332 333 332 333 331 329
236 241 239 242 247 249 245 250 248 246 252 260 266 269 273 281 286 290 292 293 291 289 291 292 293 294 300 304 306 307 309 312 315 318 322 326 328 329 329 329 329 328 327 326
238 241 240 242 249 250 245 243 246 249 252 254 263 270 269 276 285 282 283 287 289 289 289 286 288 293 295 295 297 300 302 304 308 311 315 317 319 321 323 323 324 325 322 320
238 240 243 245 248 253 251 248 247 246 253 259 264 266 272 274 270 275 281 285 285 284 285 286 287 290 289 290 291 294 297 300 303 305 308 310 313 314 315 316 316 317 318 316
239 242 242 242 241 247 252 253 250 247 251 256 259 267 271 270 270 275 281 282 282 281 282 283 284 286 285 285 287 290 293 296 298 300 302 305 307 309 310 310 310 310 312 313
240 244 246 245 244 245 249 250 248 250 252 256 259 263 265 272 274 276 278 277 277 278 279 282 284 284 282 282 285 288 291 293 295 297 299 301 302 303 304 305 306 307 308 309
241 243 245 246 247 249 251 252 247 246 252 258 256 261 267 270 274 273 274 273 275 277 279 283 283 281 278 280 283 286 288 290 291 293 295 297 298 299 300 301 302 304 305 305
244 246 248 248 248 249 248 249 254 254 251 254 256 257 261 266 270 273 273 274 275 276 279 281 281 279 276 276 277 281 284 286 288 290 292 293 294 295 296 298 299 300 302 302
246 247 249 251 251 249 250 249 250 253 254 252 255 257 259 263 268 270 272 273 273 275 277 278 280 280 280 280 280 282 283 285 287 288 289 290 292 293 295 297 297 298 297 298
248 250 251 251 253 255 254 251 251 254 253 253 255 258 259 261 263 267 269 269 271 273 275 277 279 280 280 280 280 283 284 284 285 288 289 290 291 293 294 296 296 298 299 298
250 250 251 251 253 254 255 255 253 253 255 254 255 258 259 259 259 263 267 268 270 273 275 277 280 282 281 281 281 283 284 285 286 287 288 289 290 291 292 294 295 298 299 298
249 250 249 250 251 254 257 257 256 255 256 258 258 259 260 260 260 263 266 268 270 273 275 277 280 281 281 282 283 284 285 285 285 286 287 287 289 291 292 294 296 297 298 298
252 251 250 250 250 252 254 255 257 258 259 261 262 262 263 263 264 265 266 268 271 272 273 276 277 278 279 281 282 283 284 285 285 285 286 287 289 290 291 293 294 296 296 297
248 249 251 250 251 252 252 254 257 260 261 261 262 263 263 264 265 266 267 268 269 270 272 274 275 275 277 279 281 282 284 284 285 285 285 286 288 288 289 291 293 293 294 296
247 246 247 249 251 252 253 252 254 257 260 263 265 264 266 266 265 266 267 268 269 271 272 273 274 274 275 277 280 282 283 284 284 286 286 287 288 288 289 292 293 294 295 296
248 248 249 250 251 252 253 256 258 260 262 262 263 265 265 267 268 268 268 269 270 271 271 272 272 274 276 277 278 280 281 282 284 285 287 287 288 291 293 294 293 294 295 294
248 248 248 249 251 252 254 257 259 261 260 261 262 266 267 267 268 270 270 271 272 271 271 271 272 275 276 277 278 280 281 282 283 285 286 287 289 290 292 293 292 293 294 293
Height
5923 5925 5925 5926 5928 5929 5930 5932 5931 5931 5930 5929 5927 5926 5924 5922 5921 5919 5917 5916 5914 5913 5912 5911 5910 5908 5907 5906 5906 5905 5905 5904 5903 5902 5901 5900 5899 5898 5896 5895 5893 5892 5891 5889
5924 5925 5927 5927 5928 5929 5931 5932 5932 5931 5930 5929 5928 5927 5925 5923 5923 5921 5919 5917 5916 5914 5914 5913 5911 5910 5909 5908 5907 5906 5906 5905 5904 5903 5902 5901 5900 5899 5897 5896 5894 5892 5890 5889
5923 5926 5927 5927 5929 5930 5931 5932 5932 5931 5930 5929 5929 5928 5926 5925 5924 5922 5920 5919 5917 5916 5915 5914 5913 5912 5910 5909 5908 5908 5907 5906 5905 5904 5903 5902 5901 5900 5898 5896 5894 5892 5890 5889
5923 5925 5926 5927 5928 5929 5931 5931 5931 5930 5930 5930 5930 5929 5927 5925 5924 5922 5921 5920 5918 5917 5916 5915 5914 5913 5912 5911 5910 5909 5908 5907 5906 5905 5904 5903 5901 5900 5898 5896 5894 5892 5890 5888
5922 5924 5925 5927 5928 5929 5929 5929 5929 5929 5929 5930 5931 5930 5927 5924 5923 5922 5920 5920 5918 5918 5917 5916 5915 5913 5913 5912 5911 5910 5909 5908 5906 5905 5904 5903 5902 5900 5899 5897 5894 5893 5891 5889
5921 5923 5924 5926 5926 5927 5928 5928 5928 5929 5929 5929 5930 5930 5927 5924 5923 5922 5920 5920 5919 5918 5917 5916 5915 5914 5913 5912 5911 5910 5909 5908 5907 5906 5904 5903 5902 5900 5898 5896 5894 5892 5890 5889
5919 5922 5923 5924 5925 5926 5927 5928 5928 5929 5928 5929 5929 5929 5927 5925 5924 5923 5921 5919 5919 5918 5917 5916 5915 5914 5913 5912 5911 5910 5909 5908 5907 5906 5904 5903 5901 5900 5898 5896 5894 5892 5890 5888
5918 5921 5922 5922 5923 5924 5925 5926 5927 5928 5928 5929 5928 5927 5926 5925 5923 5922 5920 5919 5918 5917 5916 5915 5914 5913 5912 5912 5911 5910 5909 5908 5907 5906 5904 5902 5901 5899 5897 5896 5893 5891 5889 5887
5916 5918 5919 5920 5921 5922 5923 5924 5925 5926 5926 5927 5927 5925 5925 5923 5921 5920 5919 5918 5917 5916 5915 5914 5913 5912 5911 5911 5910 5909 5908 5907 5906 5905 5903 5902 5900 5898 5896 5894 5892 5890 5888 5886
5911 5913 5916 5917 5918 5919 5920 5921 5923 5923 5923 5923 5924 5924 5923 5920 5920 5919 5917 5916 5915 5914 5913 5912 5912 5911 5910 5909 5908 5908 5907 5906 5904 5903 5902 5900 5898 5897 5895 5893 5890 5888 5886 5884
5908 5910 5912 5914 5915 5916 5918 5919 5920 5920 5920 5921 5921 5923 5920 5919 5918 5917 5916 5914 5913 5912 5911 5910 5910 5909 5908 5907 5906 5905 5904 5904 5903 5902 5900 5898 5897 5895 5893 5891 5889 5886 5884 5882
5903 5905 5907 5910 5911 5912 5913 5915 5917 5918 5917 5917 5917 5920 5917 5916 5916 5914 5913 5912 5911 5909 5909 5908 5907 5907 5906 5905 5904 5903 5902 5901 5900 5899 5898 5896 5894 5893 5891 5889 5887 5884 5882 5880
5897 5899 5902 5905 5909 5909 5909 5910 5912 5913 5913 5913 5913 5915 5911 5911 5911 5910 5910 5909 5907 5906 5906 5905 5904 5904 5903 5902 5900 5900 5899 5898 5897 5895 5894 5893 5891 5890 5888 5886 5884 5882 5879 5877
5891 5893 5896 5899 5902 5903 5904 5905 5906 5908 5908 5909 5910 5910 5908 5906 5906 5905 5905 5905 5903 5902 5902 5901 5901 5900 5899 5898 5897 5896 5895 5894 5893 5892 5890 5889 5888 5886 5884 5882 5880 5878 5876 5873
5884 5887 5889 5891 5895 5897 5898 5899 5901 5902 5903 5904 5905 5905 5904 5902 5901 5901 5901 5900 5899 5897 5897 5896 5896 5895 5894 5894 5893 5892 5891 5890 5889 5887 5886 5884 5883 5881 5880 5878 5875 5872 5871 5869
5877 5880 5882 5885 5888 5890 5891 5893 5894 5896 5897 5898 5899 5898 5896 5897 5897 5895 5895 5894 5893 5892 5892 5891 5891 5890 5889 5888 5888 5887 5886 5885 5884 5882 5880 5879 5877 5876 5874 5872 5870 5868 5866 5863
5870 5873 5875 5877 5881 5881 5883 5887 5889 5889 5890 5892 5892 5893 5891 5890 5890 5889 5889 5889 5888 5887 5887 5886 5885 5884 5883 5882 5881 5881 5880 5879 5878 5877 5875 5873 5871 5870 5868 5866 5864 5862 5860 5857
5863 5865 5867 5870 5873 5872 5878 5880 5881 5882 5883 5884 5884 5884 5884 5884 5883 5882 5882 5882 5882 5882 5881 5880 5878 5877 5876 5876 5874 5874 5873 5873 5871 5870 5868 5867 5865 5863 5861 5859 5857 5855 5852 5850
5855 5857 5859 5862 5863 5865 5869 5871 5872 5873 5873 5875 5876 5876 5877 5876 5876 5875 5874 5874 5875 5875 5874 5873 5873 5872 5871 5870 5869 5868 5867 5865 5864 5862 5861 5859 5857 5856 5854 5852 5849 5847 5844 5842
5847 5849 5852 5854 5855 5857 5861 5863 5863 5865 5864 5866 5867 5867 5867 5868 5868 5867 5866 5867 5867 5867 5866 5866 5865 5864 5864 5863 5861 5860 5859 5858 5856 5854 5853 5851 5849 5847 5845 5843 5841 5838 5836 5833
5839 5841 5843 5845 5847 5849 5852 5854 5855 5856 5856 5857 5857 5858 5858 5859 5859 5859 5859 5859 5859 5859 5858 5857 5857 5856 5855 5854 5853 5852 5851 5849 5848 5846 5844 5842 5841 5839 5837 5835 5832 5829 5826 5823
5831 5833 5835 5837 5839 5842 5843 5845 5846 5845 5846 5847 5848 5848 5849 5850 5850 5849 5849 5850 5850 5850 5849 5849 5848 5847 5846 5845 5844 5843 5842 5841 5839 5837 5835 5834 5831 5829 5827 5825 5822 5819 5816 5813
5822 5824 5826 5829 5832 5832 5834 5835 5836 5836 5837 5838 5839 5839 5840 5840 5840 5840 5840 5841 5841 5841 5840 5839 5838 5838 5837 5836 5835 5835 5833 5832 5830 5828 5826 5825 5822 5820 5817 5815 5812 5809 5806 5803
5812 5814 5816 5818 5820 5822 5824 5825 5827 5828 5828 5829 5830 5830 5829 5830 5831 5831 5831 5831 5831 5831 5831 5830 5829 5828 5828 5827 5826 5825 5824 5822 5820 5819 5817 5815 5813 5809 5807 5804 5801 5798 5795 5792
5803 5806 5807 5808 5811 5812 5814 5816 5817 5817 5818 5819 5820 5820 5820 5821 5821 5821 5821 5822 5821 5821 5821 5820 5818 5818 5818 5817 5816 5815 5814 5812 5811 5809 5807 5805 5802 5799 5797 5794 5790 5788 5785 5782
5794 5796 5796 5798 5801 5803 5805 5806 5807 5807 5809 5809 5811 5812 5811 5811 5811 5811 5811 5811 5811 5810 5810 5809 5808 5808 5807 5807 5806 5805 5804 5802 5800 5799 5797 5795 5792 5790 5787 5784 5781 5778 5775 5772